User: anonymous   Login
Location: Unspecified
(0.0000°N, 0.0000°E)
Time: 02:59:54
(UTC+00:00)
Language:

SR - Orbit

View from above orbital plane
View from above orbital plane
View from above satellite
View from above satellite

Ground track
Ground track

The orbit data is extracted from the following two-line orbital elements,

1 00046U 60007B   18171.86883869  .00000006  00000-0  24375-4 0  9998
2 00046  66.6891 212.2834 0216384 312.1061  46.1824 14.49151743 33671
Epoch (UTC): 20 June 2018 20:51:07
Eccentricity: 0.0216384
inclination: 66.6891°
perigee height: 574 km
apogee height: 882 km
right ascension of ascending node: 212.2834°
argument of perigee: 312.1061°
revolutions per day: 14.49151743
mean anomaly at epoch: 46.1824°
orbit number at epoch: 3367

The dashed part of the orbit path shows where the satellite is in the earth's shadow,  

DLR